Location: ?????
(42.2640°N, 43.4211°E)
Time: 02:43:47
(UTC+00:00)

Cosmos 1844 Rocket - Pass Details

Date: 07 August 2020
Orbit: 824 x 844 km, 71.0° (Epoch: 23 September)

Event Time Altitude Azimuth Distance (km) Brightness Sun altitude
Rises 01:05:55 0° 175° (S) 3,354 5.5 -10.5°
Reaches altitude 10° 01:08:34 10° 165° (SSE) 2,423 4.9 -10.1°
Maximum altitude 01:13:24 32° 104° (ESE) 1,396 4.4 -9.4°
Drops below altitude 10° 01:18:15 10° 43° (NE) 2,432 6.6 -8.6°
Sets 01:20:55 0° 34° (NE) 3,368 7.2 -8.2°
